sat.trackr.live / text

‹ back to catalog

STARLINK-30392

NORAD 57855 · 2023-141R

PAYLOAD ACTIVE UNKNOWN

§ Identity

Operator
Country
US
Launch date
2023-09-12
Launch site
AFWTR
Launch vehicle
Mass (kg)
RCS (m²)

Purposes: comms

External: N2YO · Heavens-Above · Gunter

§ Orbital elements

Epoch: 2026-05-25T02:49:17.508000Z

Period
94.11 min
Inclination
53.1598°
Eccentricity
0.0001177
Mean motion
15.30188159 rev/d
Perigee alt
474.4 km
Apogee alt
476.1 km
Semi-major
6,853.4 km
B*
6.8911e-6
RAAN
288.8241°
Arg perigee
102.4581°
Mean anomaly
257.6552°
Rev number
15,203

§ Raw data

STARLINK-303921 57855U 23141R   26145.11756375 -.00000155  00000+0  68911-5 0  99952 57855  53.1598 288.8241 0001177 102.4581 257.6552 15.30188159152037

JSON: /api/v1/satellites/57855 · /tle

For live sub-satellite position, see the globe view (requires WebGL).

§ Visibility from observer

Set your observer location to see the next 7 days of passes ≥ 10°. The values pass through the URL so the page stays shareable.

No JS? Fill the form by hand. The geolocation button needs JavaScript.